User: anonymous   Login
Location: Sandbanks Provincial Park
(47.6073°N, 57.6428°W)
Time: 23:18:48
(UTC-02:-30)
Language:

Cosmos 2034 Rocket - Orbit

View from above orbital plane
View from above orbital plane
View from above satellite
View from above satellite

Ground track
Ground track

The orbit data is extracted from the following two-line orbital elements,

1 20150U 89059B   15085.18478633  .00000063  00000-0  49533-4 0  9995
2 20150 082.9423 337.9596 0029863 037.5568 126.9175 13.75598928288479
Epoch (UTC): 26 March 2015 04:26:05
Eccentricity: 0.0029863
inclination: 82.9423°
perigee height: 957 km
apogee height: 1001 km
right ascension of ascending node: 337.9596°
argument of perigee: 37.5568°
revolutions per day: 13.75598928
mean anomaly at epoch: 126.9175°
orbit number at epoch: 28847

The dashed part of the orbit path shows where the satellite is in the earth's shadow,  

DLR